Location: ????????
(38.4362°N, 22.8767°E)
Time: 12:19:15
(UTC+00:00)

FENGYUN 1C DEB - Pass Details

Date: 19 October 2025
Orbit: 841 x 1273 km, 99.2° (Epoch: 16 November)

Event Time Altitude Azimuth Distance (km) Brightness Sun altitude
Rises 03:08:49 0° 14° (NNE) 3,406 ? -18.9°
Reaches altitude 10° 03:11:08 10° 14° (NNE) 2,477 ? -18.4°
Maximum altitude 03:16:35 88° 105° (ESE) 881 ? -17.3°
Drops below altitude 10° 03:22:21 10° 195° (SSW) 2,618 ? -16.2°
Sets 03:24:51 0° 195° (SSW) 3,613 ? -15.7°
